TimeEST,TemperatureF,Dew PointF,Humidity,Sea Level PressureIn,VisibilityMPH,Wind Direction,Wind SpeedMPH,Gust SpeedMPH,PrecipitationIn,Events,Conditions,WindDirDegrees,DateUTC
12:53 AM,54.0,48.9,83,30.27,10.0,SSW,17.3,-,N/A,,Mostly Cloudy,210,2011-11-20 05:53:00
1:53 AM,55.9,48.9,77,30.26,10.0,SW,18.4,-,N/A,,Overcast,220,2011-11-20 06:53:00
2:53 AM,55.9,50.0,80,30.23,10.0,SSW,19.6,26.5,N/A,,Overcast,210,2011-11-20 07:53:00
3:53 AM,57.0,51.1,81,30.22,10.0,SSW,20.7,27.6,N/A,,Overcast,210,2011-11-20 08:53:00
4:53 AM,57.0,51.1,81,30.20,10.0,SW,23.0,32.2,N/A,,Overcast,220,2011-11-20 09:53:00
5:53 AM,57.0,52.0,83,30.19,10.0,SW,16.1,-,N/A,,Overcast,220,2011-11-20 10:53:00
6:53 AM,57.9,51.1,78,30.18,10.0,SW,18.4,26.5,N/A,,Overcast,220,2011-11-20 11:53:00
7:53 AM,57.9,51.1,78,30.17,9.0,SSW,19.6,-,N/A,,Overcast,210,2011-11-20 12:53:00
8:53 AM,61.0,52.0,72,30.16,10.0,SW,23.0,29.9,N/A,,Mostly Cloudy,220,2011-11-20 13:53:00
9:53 AM,60.1,51.1,72,30.14,10.0,SW,21.9,29.9,N/A,,Mostly Cloudy,220,2011-11-20 14:53:00
10:53 AM,62.1,51.1,67,30.12,10.0,SW,23.0,34.5,N/A,,Clear,220,2011-11-20 15:53:00
11:53 AM,61.0,53.1,75,30.10,9.0,SW,21.9,33.4,N/A,,Clear,230,2011-11-20 16:53:00
12:53 PM,60.1,52.0,75,30.09,7.0,WSW,25.3,31.1,N/A,,Mostly Cloudy,240,2011-11-20 17:53:00
1:05 PM,59.0,51.8,77,30.09,7.0,SW,21.9,29.9,N/A,,Overcast,230,2011-11-20 18:05:00
1:12 PM,57.2,51.8,82,30.08,9.0,SW,20.7,-,N/A,,Overcast,230,2011-11-20 18:12:00
1:53 PM,59.0,52.0,78,30.07,9.0,SW,21.9,-,N/A,,Partly Cloudy,230,2011-11-20 18:53:00
2:53 PM,57.0,52.0,83,30.07,6.0,WSW,20.7,-,N/A,,Haze,240,2011-11-20 19:53:00
3:53 PM,55.9,52.0,87,30.08,6.0,WSW,18.4,-,N/A,,Clear,240,2011-11-20 20:53:00
4:53 PM,55.0,51.1,86,30.09,7.0,WSW,17.3,-,N/A,,Clear,240,2011-11-20 21:53:00
5:53 PM,55.0,52.0,89,30.09,7.0,WSW,15.0,-,N/A,,Clear,240,2011-11-20 22:53:00
6:53 PM,55.0,52.0,89,30.11,6.0,WSW,12.7,-,N/A,,Clear,240,2011-11-20 23:53:00
7:53 PM,55.0,52.0,89,30.09,6.0,WSW,11.5,-,N/A,,Clear,240,2011-11-21 00:53:00
8:53 PM,55.4,51.8,88,30.10,8.0,WSW,15.0,-,N/A,,Clear,240,2011-11-21 01:53:00
9:53 PM,55.0,52.0,89,30.09,8.0,WSW,13.8,-,N/A,,Clear,250,2011-11-21 02:53:00
10:53 PM,55.4,51.8,88,30.09,9.0,WSW,12.7,-,N/A,,Clear,250,2011-11-21 03:53:00
11:53 PM,55.0,52.0,89,30.08,8.0,WSW,11.5,-,N/A,,Clear,250,2011-11-21 04:53:00